Location: Boussac
(44.2782°N, 2.3665°E)
Time: 21:31:20
(UTC+00:00)

Cosmos 1980 Rocket - Pass Details

Date: 15 May 2026
Orbit: 827 x 850 km, 71.0° (Epoch: 10 June)

Event Time Altitude Azimuth Distance (km) Brightness Sun altitude
Rises 19:35:44 0° 333° (NNW) 3,424 6.5 -4.7°
Reaches altitude 10° 19:38:12 10° 333° (NNW) 2,483 5.7 -5.1°
Maximum altitude 19:43:55 84° 247° (WSW) 858 2.3 -5.9°
Drops below altitude 10° 19:49:34 10° 160° (SSE) 2,457 4.1 -6.8°
Enters shadow 19:51:20 - 159° (SSE) 3,132 4.7 -7.0°
